Location: Vanderbilt Beach
(26.2700°N, 81.7900°W)
Time: 18:48:41
(UTC-04:00)

Envisat - Visible Passes

Search period start: 13 June 2021 00:00
Search period end: 23 June 2021 00:00
Orbit: 764 x 766 km, 98.1° (Epoch: 13 June)

Date Brightness Start Highest point End Pass type
(mag) Time Alt. Az. Time Alt. Az. Time Alt. Az.
14 Jun 5.7 05:38:54 10° ENE 05:41:50 15° E 05:44:45 10° SE visible
16 Jun 5.0 06:02:54 10° NE 06:07:19 30° E 06:11:42 10° SSE visible
17 Jun 6.0 05:28:51 10° ENE 05:30:18 11° E 05:31:44 10° ESE visible
19 Jun 5.4 05:51:52 10° NE 05:55:48 22° E 05:59:43 10° SSE visible
22 Jun 5.6 05:41:03 10° NE 05:44:16 17° E 05:47:30 10° SE visible
